Weather History for KHCD - May, 2013

Change the Weather History Date:

Thursday, May 16, 2013

  Actual Average Record
Temperature  
Mean Temperature 64 °F -  
Max Temperature 83 °F 72 °F 87 °F (1972)
Min Temperature 46 °F 47 °F 35 °F (2005)
Growing Degree Days 14 (Base 50)    
Moisture  
Dew Point 43 °F    
Average Humidity 43    
Maximum Humidity 82    
Minimum Humidity 21    
Precipitation  
Precipitation 0.00 in - - ()
Sea Level Pressure  
Sea Level Pressure 29.88 in    
Wind  
Wind Speed 7 mph (ENE)    
Max Wind Speed 21 mph    
Max Gust Speed 30 mph    
Visibility 10 miles    
Events Rain    
Averages and records for this station are not official NWS values.
T = Trace of Precipitation, MM = Missing Value Source: NWS Daily Summary

Daily Weather History Graph

Daily Weather History Graph

Search for Another Location

Airport or City:

Trip Planner

Search our weather history database for the weather conditions in past years. The results will help you decide how hot, cold, wet, or windy it might be!

Date:

Astronomy

May. 16, 2013 Rise Set
Actual Time 5:47 AM CDT 8:40 PM CDT
Civil Twilight 5:13 AM CDT 9:15 PM CDT
Nautical Twilight 4:29 AM CDT 9:59 PM CDT
Astronomical Twilight 3:38 AM CDT 10:50 PM CDT
Moon 11:26 AM CDT (5/16) 12:58 AM CDT (5/16)
Length of Visible Light 16h 02m
Length of Day
14h 53m
Waxing Crescent, 36% of the Moon is Illuminated
May 16
Waxing Crescent
May 17
First Quarter
May 24
Full
May 31
Last Quarter
Jun 8
New

Hourly Weather History & Observations

Time (CDT) Temp. Windchill Dew Point Humidity Pressure Visibility Wind Dir Wind Speed Gust Speed Precip Events Conditions
12:14 AM 64.0 °F - 45.9 °F 52% 29.87 in 10.0 mi WSW 9.2 mph - N/A   Clear
12:33 AM 62.8 °F - 45.7 °F 54% 29.87 in 10.0 mi WSW 8.1 mph - N/A   Clear
12:54 AM 60.4 °F - 45.3 °F 57% 29.87 in 10.0 mi WSW 5.8 mph - N/A   Clear
1:14 AM 59.0 °F - 45.0 °F 60% 29.87 in 10.0 mi WSW 4.6 mph - N/A   Clear
1:34 AM 58.3 °F - 44.8 °F 61% 29.87 in 10.0 mi Calm Calm - N/A   Clear
1:53 AM 59.5 °F - 45.5 °F 60% 29.87 in 10.0 mi West 3.5 mph - N/A   Clear
2:14 AM 58.1 °F - 45.3 °F 62% 29.87 in 10.0 mi WSW 4.6 mph - N/A   Clear
2:34 AM 56.3 °F - 45.0 °F 66% 29.87 in 10.0 mi WSW 5.8 mph - N/A   Clear
2:54 AM 55.9 °F - 44.6 °F 66% 29.87 in 10.0 mi WSW 4.6 mph - N/A   Clear
3:13 AM 56.3 °F - 45.1 °F 66% 29.87 in 10.0 mi WSW 4.6 mph - N/A   Clear
3:34 AM 54.7 °F - 44.6 °F 69% 29.87 in 10.0 mi WNW 3.5 mph - N/A   Clear
3:53 AM 54.3 °F - 44.8 °F 70% 29.88 in 10.0 mi WSW 4.6 mph - N/A   Clear
4:13 AM 53.8 °F - 45.1 °F 73% 29.87 in 10.0 mi West 4.6 mph - N/A   Clear
4:34 AM 51.6 °F - 43.7 °F 74% 29.88 in 10.0 mi Calm Calm - N/A   Clear
4:53 AM 51.6 °F - 44.1 °F 75% 29.89 in 10.0 mi Calm Calm - N/A   Clear
5:14 AM 49.5 °F - 43.5 °F 80% 29.89 in 10.0 mi Calm Calm - N/A   Clear
5:34 AM 46.4 °F 45.2 °F 40.5 °F 80% 29.89 in 10.0 mi WNW 3.5 mph - N/A   Clear
5:54 AM 49.3 °F - 43.0 °F 79% 29.89 in 10.0 mi Calm Calm - N/A   Clear
6:14 AM 47.8 °F - 42.6 °F 82% 29.90 in 10.0 mi West 3.5 mph - N/A   Clear
6:33 AM 49.1 °F - 43.3 °F 81% 29.90 in 10.0 mi WNW 3.5 mph - N/A   Clear
6:54 AM 52.3 °F - 45.7 °F 78% 29.90 in 10.0 mi Calm Calm - N/A   Clear
7:14 AM 54.5 °F - 45.7 °F 72% 29.91 in 10.0 mi Calm Calm - N/A   Clear
7:33 AM 54.7 °F - 46.8 °F 75% 29.91 in 10.0 mi Calm Calm - N/A   Clear
7:53 AM 59.4 °F - 47.7 °F 65% 29.92 in 10.0 mi Calm Calm - N/A   Clear
8:14 AM 63.9 °F - 46.6 °F 53% 29.92 in 10.0 mi NNE 5.8 mph - N/A   Clear
8:34 AM 66.4 °F - 46.0 °F 48% 29.92 in 10.0 mi NE 8.1 mph - N/A   Clear
8:54 AM 68.7 °F - 45.7 °F 44% 29.92 in 10.0 mi ENE 10.4 mph - N/A   Clear
9:13 AM 70.2 °F - 45.7 °F 41% 29.92 in 10.0 mi ENE 11.5 mph - N/A   Clear
9:34 AM 72.3 °F - 45.9 °F 39% 29.92 in 10.0 mi ENE 12.7 mph 17.3 mph N/A   Clear
9:54 AM 73.9 °F - 43.7 °F 34% 29.92 in 7.0 mi ENE 11.5 mph 18.4 mph N/A   Clear
10:14 AM 75.4 °F - 42.8 °F 31% 29.92 in 7.0 mi ENE 15.0 mph 20.7 mph N/A   Clear
10:34 AM 76.5 °F - 43.3 °F 31% 29.92 in 7.0 mi ENE 13.8 mph 18.4 mph N/A   Clear
10:54 AM 77.4 °F - 42.6 °F 29% 29.91 in 10.0 mi East 13.8 mph 20.7 mph N/A   Clear
11:14 AM 78.6 °F - 42.1 °F 27% 29.91 in 5.0 mi East 12.7 mph 18.4 mph N/A   Haze
11:32 AM 79.2 °F - 41.7 °F 26% 29.90 in 10.0 mi East 12.7 mph - N/A   Clear
11:54 AM 80.1 °F - 42.1 °F 26% 29.90 in 10.0 mi ENE 11.5 mph 18.4 mph N/A   Clear
12:14 PM 81.0 °F - 41.9 °F 25% 29.90 in 10.0 mi East 16.1 mph 19.6 mph N/A   Clear
12:34 PM 80.1 °F - 40.3 °F 24% 29.89 in 10.0 mi East 10.4 mph 18.4 mph N/A   Clear
12:53 PM 79.7 °F - 41.4 °F 26% 29.90 in 10.0 mi ESE 8.1 mph 18.4 mph N/A   Clear
1:14 PM 80.8 °F - 40.1 °F 23% 29.89 in 10.0 mi East 12.7 mph 17.3 mph N/A   Clear
1:33 PM 82.2 °F - 38.7 °F 21% 29.89 in 10.0 mi East 9.2 mph - N/A   Clear
2:14 PM 82.2 °F - 40.8 °F 23% 29.88 in 7.0 mi East 12.7 mph 16.1 mph N/A   Clear
2:34 PM 82.6 °F - 41.9 °F 24% 29.87 in 10.0 mi East 11.5 mph 18.4 mph N/A   Clear
2:54 PM 82.6 °F - 40.1 °F 22% 29.87 in 10.0 mi East 9.2 mph - N/A   Clear
3:13 PM 83.3 °F - 39.6 °F 21% 29.87 in 10.0 mi East 3.5 mph 10.4 mph N/A   Clear
3:33 PM 82.6 °F - 39.7 °F 22% 29.87 in 10.0 mi East 5.8 mph - N/A   Clear
3:54 PM 82.2 °F - 41.9 °F 24% 29.87 in 10.0 mi ENE 8.1 mph - N/A   Clear
4:14 PM 82.2 °F - 41.4 °F 23% 29.87 in 10.0 mi ENE 6.9 mph - N/A   Clear
4:34 PM 82.2 °F - 41.4 °F 23% 29.87 in 10.0 mi ESE 8.1 mph - N/A   Clear
5:13 PM 81.0 °F - 41.9 °F 25% 29.86 in 10.0 mi East 9.2 mph - N/A   Clear
5:34 PM 80.6 °F - 42.3 °F 26% 29.85 in 10.0 mi ENE 12.7 mph 17.3 mph N/A   Clear
5:54 PM 79.9 °F - 43.0 °F 27% 29.85 in 10.0 mi ENE 9.2 mph - N/A   Clear
6:14 PM 79.0 °F - 42.8 °F 28% 29.85 in 10.0 mi ENE 12.7 mph - N/A   Clear
6:21 PM 78.6 °F - 43.5 °F 29% 29.85 in 10.0 mi ENE 11.5 mph - N/A   Clear
6:45 PM 77.0 °F - 42.8 °F 29% 29.84 in 10.0 mi ENE 11.5 mph - N/A   Clear
7:05 PM 77.0 °F - 42.8 °F 29% 29.85 in 10.0 mi East 11.5 mph 16.1 mph N/A   Clear
7:25 PM 77.0 °F - 42.8 °F 29% 29.85 in 10.0 mi East 10.4 mph 16.1 mph N/A   Clear
7:45 PM 77.0 °F - 42.8 °F 29% 29.86 in 10.0 mi East 10.4 mph - N/A   Mostly Cloudy
8:05 PM 77.0 °F - 41.0 °F 28% 29.86 in 10.0 mi East 10.4 mph 16.1 mph N/A   Overcast
8:21 PM 76.1 °F - 41.4 °F 29% 29.86 in 10.0 mi ENE 11.5 mph - N/A   Overcast
8:33 PM 75.9 °F - 41.5 °F 29% 29.86 in 10.0 mi East 9.2 mph - N/A   Overcast
8:53 PM 75.2 °F - 41.7 °F 30% 29.86 in 10.0 mi ENE 12.7 mph 18.4 mph N/A   Overcast
9:14 PM 75.0 °F - 41.9 °F 30% 29.86 in 10.0 mi ENE 13.8 mph 23.0 mph N/A   Mostly Cloudy
9:34 PM 74.3 °F - 41.5 °F 31% 29.88 in 10.0 mi East 10.4 mph 16.1 mph N/A   Mostly Cloudy
9:54 PM 74.1 °F - 40.5 °F 30% 29.87 in 10.0 mi ENE 15.0 mph 23.0 mph N/A   Overcast
10:14 PM 73.4 °F - 38.5 °F 28% 29.87 in 10.0 mi ENE 20.7 mph 25.3 mph N/A   Overcast
10:34 PM 72.5 °F - 36.3 °F 27% 29.88 in 10.0 mi East 15.0 mph 29.9 mph N/A   Overcast
10:53 PM 69.6 °F - 39.9 °F 34% 29.90 in 10.0 mi ENE 12.7 mph - N/A Rain Light Rain
11:14 PM 67.5 °F - 41.7 °F 39% 29.90 in 10.0 mi ENE 12.7 mph 18.4 mph N/A Rain Light Rain
11:34 PM 66.2 °F - 42.1 °F 41% 29.91 in 10.0 mi East 11.5 mph - N/A Rain Light Rain
11:54 PM 64.4 °F - 44.2 °F 48% 29.91 in 10.0 mi East 11.5 mph - N/A Rain Light Rain